Hourly Data Report for June 28, 2001

SHERBROOKE A
QUEBEC

45°26'00.000" N
71°41'00.000" W
241.40 m
7028124
71610
YSC

Download Data

Hourly Data (June 2001)
Hourly Data Report for June 28, 2001
TIME
LST
Temp Definition
°C
Dew Point Definition
°C
Rel Hum Definition
%
Precip. Amount Definition
mm

Wind Dir Definition
10's deg

Wind Spd Definition
km/h
Visibility Definition
km
Stn Press Definition
kPa
Hmdx Definition


Wind Chill Definition


Weather Definition


00:00 20.2 18.7 91   29 7 6.4 98.87 27    
01:00 19.7 18.8 95   30 9 4.8 98.90      
02:00 18.8 18.0 95   32 4 3.7 98.95      
03:00 17.4 13.6 78   35 6 15.0 98.99      
04:00 16.5 11.4 72   32 7 15.0 99.06      
05:00 16.3 9.3 63   32 6 15.0 99.14      
06:00 15.9 7.6 58   32 13 15.0 99.19      
07:00 15.8 6.6 54   32 17 24.1 99.24     Mainly Clear
08:00 16.0 6.7 54   32 15 24.1 99.20     Mainly Clear
09:00 16.9 6.5 50   32 13 24.1 99.21     Mainly Clear
10:00 18.4 8.4 52   31 11 24.1 99.19     Mainly Clear
11:00 19.1 7.0 45   31 19 24.1 99.15     Mainly Clear
12:00 19.5 7.4 45   30 22 24.1 99.15     Mainly Clear
13:00 20.1 7.8 45   29 26 24.1 99.10     Clear
14:00 20.6 8.3 45   31 20 24.1 99.09     Clear
15:00 20.5 7.7 44   32 20 24.1 99.06     Clear
16:00 20.7 7.5 42   31 20 24.1 99.05     Mainly Clear
17:00 20.2 7.3 43   30 19 15.0 99.06      
18:00 19.7 6.2 41   32 13 15.0 99.08      
19:00 17.6 8.3 54     0 15.0 99.09      
20:00 13.6 7.9 68   21 7 15.0 99.09      
21:00 12.1 7.1 71   23 6 15.0 99.13      
22:00 10.8 7.1 78   25 6 15.0 99.13      
23:00 9.9 7.8 87     0 15.0 99.17      

Notes on Data Quality.

Legend

  • E = Estimated
  • M = Missing
  • NA = Not Available*
  • [empty] = Indicates an unobserved value
Date modified: